Date,TemperatureHighF,TemperatureAvgF,TemperatureLowF,DewpointHighF,DewpointAvgF,DewpointLowF,HumidityHigh,HumidityAvg,HumidityLow,PressureMaxIn,PressureMinIn,WindSpeedMaxMPH,WindSpeedAvgMPH,GustSpeedMaxMPH,PrecipitationSumIn
2013-1-1,36,27,10,29,19,5,86,70,62,30.00,29.77,24,8,30,0.00
2013-1-2,28,17,4,19,10,-2,89,76,64,30.25,29.97,9,4,30,0.00
2013-1-3,19,8,-4,11,0,-8,84,72,61,30.28,30.00,10,2,14,0.00
2013-1-4,40,31,19,26,21,11,84,69,53,30.00,29.86,13,3,25,0.00
2013-1-5,39,33,23,28,23,18,84,68,49,30.26,29.92,25,9,36,0.00
2013-1-6,42,34,24,30,28,19,88,77,62,30.19,29.91,10,3,14,0.01
2013-1-7,37,28,16,32,23,13,90,80,63,30.40,29.99,17,4,23,0.00
2013-1-8,42,26,12,30,21,9,93,81,60,30.39,30.29,14,2,17,0.00
2013-1-9,44,32,18,33,26,16,92,79,52,30.38,30.00,33,5,59,0.00
2013-1-10,44,37,26,32,27,22,86,67,53,30.57,30.14,35,11,59,0.00
2013-1-11,39,32,24,37,28,21,94,87,65,30.55,30.10,14,3,18,0.15
2013-1-12,45,41,36,43,39,35,96,94,91,30.16,30.08,12,3,15,0.00
2013-1-13,49,44,40,46,43,39,97,94,90,30.14,29.94,18,7,25,0.00
2013-1-14,48,43,35,46,36,26,94,77,58,30.33,29.85,25,11,41,0.01
2013-1-15,38,33,30,27,25,23,79,71,57,30.37,30.24,14,4,18,0.00
2013-1-16,33,31,29,31,28,24,95,89,77,30.24,29.83,6,1,8,0.24
2013-1-17,38,31,23,32,24,11,95,75,55,30.18,29.85,16,6,32,0.00
2013-1-18,25,19,11,12,7,0,78,60,42,30.42,30.11,20,6,29,0.00
2013-1-19,43,35,25,29,22,12,65,58,51,30.26,29.78,20,12,29,0.00
2013-1-20,45,36,22,34,24,12,82,61,42,30.03,29.54,31,14,45,0.00
2013-1-21,27,23,17,20,14,11,84,70,53,30.08,29.81,9,3,18,0.00
2013-1-22,21,16,9,16,5,-2,85,63,40,30.14,29.80,25,8,36,0.00
2013-1-23,12,7,1,2,-3,-5,80,64,48,30.23,30.13,23,6,32,0.00
2013-1-24,17,7,-2,3,-2,-6,82,66,43,30.41,30.18,30,8,38,0.00
2013-1-25,19,12,5,11,2,-4,86,65,47,30.44,30.10,22,6,33,0.00
2013-1-26,23,14,6,9,6,2,87,72,50,30.36,30.09,17,6,30,0.00
2013-1-27,29,16,4,9,5,0,87,62,33,30.54,30.35,16,4,20,0.00
2013-1-28,30,24,15,29,18,8,94,81,59,30.50,29.97,7,1,9,0.00
2013-1-29,40,32,26,38,30,25,95,91,87,30.16,29.99,17,3,21,0.33
2013-1-30,57,50,40,55,48,38,95,92,89,30.02,29.30,25,14,33,0.16
2013-1-31,54,40,25,53,33,19,96,77,52,29.65,28.89,30,12,56,0.56
2013-2-1,29,24,18,20,13,8,84,64,51,30.17,29.65,28,10,45,0.00
2013-2-2,28,21,10,16,11,6,86,67,50,30.23,30.02,22,5,30,0.00
2013-2-3,30,23,15,18,16,13,90,74,53,30.06,29.78,10,1,11,0.00
2013-2-4,27,22,14,18,14,10,86,72,52,29.97,29.78,20,6,36,0.00
2013-2-5,30,23,17,22,14,9,84,68,50,30.03,29.90,8,2,12,0.00
2013-2-6,35,28,18,26,18,5,90,68,38,30.39,29.90,30,7,36,0.00
2013-2-7,27,20,14,10,8,6,78,60,44,30.56,30.38,12,4,15,0.00
2013-2-8,32,24,20,25,19,9,91,79,63,30.39,29.83,20,6,27,0.28
2013-2-9,27,19,6,22,11,0,92,70,46,30.38,29.86,23,9,30,0.35
2013-2-10,30,13,-2,11,4,-6,85,69,35,30.54,30.29,8,1,9,0.00
2013-2-11,41,34,17,38,30,11,93,82,59,30.28,29.65,21,9,30,0.02
2013-2-12,39,36,34,32,29,26,90,73,66,29.94,29.69,26,8,43,0.00
2013-2-13,41,34,31,28,25,22,84,69,50,29.91,29.73,10,2,17,0.00
2013-2-14,41,32,23,27,24,19,87,71,55,29.95,29.73,16,3,25,0.00
2013-2-15,50,40,32,32,28,24,90,63,45,30.02,29.88,20,7,25,0.00
2013-2-16,34,30,24,29,19,11,93,66,51,30.02,29.86,22,8,29,0.02
2013-2-17,26,20,14,12,6,1,68,56,39,29.96,29.67,35,14,59,0.00
2013-2-18,29,19,9,12,4,-1,70,53,34,30.23,29.97,29,13,44,0.00
2013-2-19,44,31,18,35,23,10,93,73,50,30.17,29.63,28,6,41,0.11
2013-2-20,33,29,25,26,17,11,79,62,44,29.90,29.66,31,14,48,0.00
2013-2-21,26,22,19,17,12,9,80,67,58,30.40,29.89,32,15,43,0.00
2013-2-22,37,29,20,26,21,15,84,71,60,30.45,30.24,17,3,18,0.00
2013-2-23,37,36,33,35,31,26,93,83,70,30.24,29.88,10,4,17,0.00
2013-2-24,39,34,32,35,31,27,95,87,70,29.98,29.78,18,6,30,0.02
2013-2-25,42,34,24,31,28,22,93,77,59,30.25,29.98,13,2,18,0.00
2013-2-26,46,36,26,33,28,24,92,73,53,30.31,30.04,18,3,21,0.00
2013-2-27,44,38,33,38,34,29,95,87,73,30.04,29.55,15,4,24,0.47
2013-2-28,44,38,34,39,35,33,96,89,76,29.61,29.56,12,2,18,0.05
2013-3-1,41,35,32,34,32,27,94,86,74,29.78,29.61,15,6,25,0.04
2013-3-2,36,31,26,27,25,21,87,78,66,29.78,29.72,20,11,27,0.08
2013-3-3,32,27,23,26,20,17,85,77,69,29.78,29.70,21,11,38,0.04
2013-3-4,33,29,26,24,22,20,82,75,67,29.92,29.76,31,15,50,0.00
2013-3-5,42,34,29,29,25,22,85,72,59,30.09,29.92,17,8,24,0.00
2013-3-6,43,36,29,34,28,25,87,74,61,30.13,30.04,21,8,32,0.00
2013-3-7,39,34,30,31,27,24,93,76,58,30.17,30.10,22,8,25,0.18
2013-3-8,41,33,30,31,28,25,93,83,64,30.30,30.11,23,10,25,0.74
2013-3-9,52,35,21,30,25,18,90,69,39,30.36,30.28,13,5,23,0.00
2013-3-10,54,41,22,33,27,19,92,61,36,30.36,30.19,17,7,24,0.00
2013-3-11,50,44,37,42,36,31,82,72,60,30.24,29.99,23,12,35,0.00
2013-3-12,53,49,39,51,45,34,95,87,79,30.00,29.67,24,12,29,0.81
2013-3-13,48,39,33,33,28,23,86,68,41,29.88,29.78,28,8,35,0.00
2013-3-14,33,28,25,25,16,10,74,60,49,29.92,29.83,31,15,45,0.00
2013-3-15,38,30,18,31,20,11,87,67,52,29.95,29.66,20,6,30,0.00
2013-3-16,35,29,22,27,18,15,86,64,45,29.92,29.76,18,6,24,0.00
2013-3-17,37,28,19,18,12,8,76,53,32,30.34,29.92,28,7,32,0.00
2013-3-18,39,28,15,26,13,7,91,58,29,30.46,30.11,13,3,15,0.15
2013-3-19,36,32,28,33,29,24,94,90,87,30.08,29.71,10,3,18,0.54
2013-3-20,38,28,16,25,21,14,92,75,52,29.83,29.77,21,4,32,0.01
2013-3-21,38,27,14,20,15,11,90,65,41,29.82,29.66,22,5,23,0.00
2013-3-22,37,29,18,26,21,12,84,72,59,29.83,29.70,21,6,35,0.00
2013-3-23,41,35,31,26,24,22,81,65,48,29.89,29.78,28,14,38,0.00
2013-3-24,45,37,32,26,24,23,73,62,46,29.91,29.76,15,7,20,0.00
2013-3-25,44,37,30,30,27,24,79,68,54,29.78,29.52,17,7,24,0.00
2013-3-26,48,39,30,31,27,22,85,64,36,29.85,29.61,16,4,24,0.00
2013-3-27,52,40,28,35,28,21,83,65,46,29.94,29.84,28,7,35,0.00
2013-3-28,49,42,37,37,34,31,86,72,58,30.10,29.94,18,9,23,0.00
2013-3-29,52,43,32,35,32,27,86,65,46,30.13,30.05,20,9,29,0.00
2013-3-30,56,43,28,33,27,23,91,58,30,30.14,30.05,23,5,24,0.00
2013-3-31,56,43,27,40,30,23,91,62,35,30.12,29.71,25,7,32,0.11
2013-4-1,53,41,32,45,33,17,95,76,42,29.88,29.56,33,10,46,0.08
2013-4-2,38,32,26,25,20,15,88,64,39,30.03,29.87,32,11,44,0.02
2013-4-3,41,34,26,22,18,15,77,55,35,30.29,30.01,30,13,46,0.00
2013-4-4,55,41,25,26,23,19,82,51,29,30.36,29.97,16,7,25,0.00
2013-4-5,54,45,36,32,26,21,78,50,31,29.99,29.77,26,11,43,0.00
2013-4-6,48,37,29,30,14,9,77,41,22,30.29,29.99,21,8,27,0.00
2013-4-7,60,45,31,36,25,15,66,46,28,30.25,29.85,26,12,35,0.00
2013-4-8,62,51,41,41,37,34,83,60,38,30.13,29.92,17,4,23,0.00
2013-4-9,60,56,52,49,45,39,76,66,52,30.04,29.82,29,10,38,0.02
2013-4-10,59,51,45,51,47,43,95,88,72,29.99,29.83,20,5,23,0.70
2013-4-11,45,40,33,43,32,25,93,73,51,30.14,29.88,23,11,27,0.02
2013-4-12,41,36,33,37,34,26,93,90,73,30.13,29.78,10,3,18,0.53
2013-4-13,52,44,38,42,38,36,95,82,65,29.94,29.81,15,2,25,0.01
2013-4-14,48,42,32,38,32,26,89,70,47,30.25,29.93,29,7,32,0.02
2013-4-15,61,46,28,37,32,25,92,61,39,30.37,30.23,20,5,23,0.00
2013-4-16,60,54,48,54,44,32,90,69,51,30.30,30.01,23,13,35,0.22
2013-4-17,65,52,43,43,37,32,78,59,32,30.31,30.13,17,8,27,0.00
2013-4-18,66,52,35,47,37,31,86,60,36,30.34,30.01,25,10,35,0.00
2013-4-19,72,62,45,62,56,42,89,80,68,30.01,29.51,30,14,49,0.73
2013-4-20,54,46,36,42,34,23,92,67,40,30.33,29.73,25,9,35,0.21
2013-4-21,52,40,31,27,23,19,67,51,31,30.65,30.33,18,7,27,0.00
2013-4-22,60,46,31,30,26,20,79,47,24,30.71,30.49,15,5,21,0.00
2013-4-23,56,44,30,41,34,26,86,67,54,30.52,30.14,8,2,12,0.00
2013-4-24,73,55,34,51,43,31,93,67,43,30.14,29.68,21,6,33,0.00
2013-4-25,62,48,39,52,34,29,82,59,35,30.26,29.72,22,10,39,0.08
2013-4-26,59,47,34,39,33,30,89,62,34,30.44,30.26,24,5,27,0.00
2013-4-27,66,50,33,38,33,27,89,57,24,30.45,30.27,13,3,15,0.00
2013-4-28,74,58,37,44,38,33,90,52,26,30.31,30.09,17,4,20,0.00
2013-4-29,60,56,52,49,43,32,89,61,39,30.22,30.16,14,6,18,0.02
2013-4-30,74,60,48,49,43,32,89,57,30,30.30,30.21,13,3,18,0.01
2013-5-1,77,62,43,42,35,30,69,38,22,30.43,30.29,10,2,16,0.00
2013-5-2,82,66,46,48,43,38,83,47,24,30.45,30.24,17,4,24,0.00
2013-5-3,73,62,51,44,37,29,58,41,24,30.47,30.29,12,4,18,0.00
2013-5-4,78,63,45,49,43,30,88,51,27,30.35,30.14,13,3,16,0.00
2013-5-5,76,61,44,44,39,33,85,49,24,30.29,30.12,12,3,15,0.00
2013-5-6,76,61,43,51,41,23,88,54,14,30.25,30.06,10,4,15,0.00
2013-5-7,80,67,50,56,52,47,92,62,35,30.15,30.01,8,2,15,0.00
2013-5-8,73,64,55,62,57,52,93,79,57,30.13,29.97,13,2,20,0.09
2013-5-9,72,62,51,58,54,50,96,79,51,29.99,29.85,7,2,16,0.00
2013-5-10,76,66,51,59,55,50,95,70,47,29.97,29.81,10,2,15,0.00
2013-5-11,69,63,56,64,58,51,93,86,64,29.82,29.64,17,4,20,0.59
2013-5-12,60,53,44,51,41,29,87,66,33,29.87,29.66,26,6,35,0.01
2013-5-13,51,45,38,36,31,28,82,59,45,30.09,29.86,17,5,27,0.00
2013-5-14,60,47,37,37,33,28,87,61,33,30.12,30.01,15,3,23,0.00
2013-5-15,65,50,33,53,41,31,93,75,48,30.05,29.59,17,4,21,0.06
2013-5-16,81,65,45,50,42,36,89,49,23,29.85,29.67,22,6,39,0.00
2013-5-17,70,58,47,46,42,39,77,58,35,30.21,29.86,15,4,21,0.00
2013-5-18,72,60,43,50,45,41,93,63,33,30.30,30.19,14,3,16,0.00
2013-5-19,60,56,48,56,53,46,94,88,77,30.29,30.14,9,2,14,0.06
2013-5-20,81,67,57,66,60,54,92,80,58,30.15,29.91,9,2,14,0.00
2013-5-21,89,72,60,70,64,59,96,80,50,29.94,29.76,26,3,35,0.60
2013-5-22,76,69,62,71,66,61,96,90,79,29.87,29.76,17,3,29,1.51
2013-5-23,74,70,66,69,65,62,94,86,78,29.81,29.70,10,4,20,0.25
2013-5-24,66,52,44,65,50,42,96,93,88,30.01,29.64,15,5,31,0.75
2013-5-25,46,45,44,44,43,41,94,93,89,29.99,29.92,20,10,31,0.89
2013-5-26,57,49,42,47,43,40,93,79,58,30.13,29.88,22,8,30,0.12
2013-5-27,72,56,39,45,40,37,95,59,33,30.20,30.10,16,4,26,0.00
2013-5-28,70,57,41,55,46,39,93,69,40,30.22,30.11,12,2,18,0.00
2013-5-29,78,65,58,70,62,55,96,89,75,30.11,29.89,23,3,62,1.60
2013-5-30,88,74,61,71,66,60,97,78,51,30.10,30.02,14,3,20,0.00
2013-5-31,91,78,63,73,67,61,95,70,45,30.09,29.90,7,1,9,0.00
2013-6-1,89,79,66,73,67,62,85,67,54,29.95,29.80,12,2,18,0.00
2013-6-2,86,76,68,73,69,65,91,78,62,29.82,29.66,13,4,21,0.05
2013-6-3,70,65,55,66,54,39,93,71,45,29.93,29.78,16,6,26,0.01
2013-6-4,73,61,50,50,44,41,75,57,39,30.12,29.93,17,7,31,0.00
2013-6-5,75,62,48,51,47,42,88,59,39,30.21,30.08,8,2,14,0.00
2013-6-6,72,62,52,57,52,48,94,72,47,30.13,30.02,12,2,23,0.51
2013-6-7,58,57,55,57,55,54,95,94,92,30.03,29.79,8,1,15,0.54
2013-6-8,72,62,54,62,57,53,95,84,69,30.04,29.72,15,5,29,0.20
2013-6-9,77,66,53,60,56,51,95,74,49,30.17,30.04,17,2,20,0.00
2013-6-10,66,61,54,63,58,52,95,92,84,30.17,29.87,5,0,8,0.55
2013-6-11,69,63,59,67,60,56,96,92,82,29.87,29.55,13,3,27,1.25
2013-6-12,74,64,57,58,55,53,90,73,50,29.84,29.64,16,7,30,0.00
2013-6-13,58,56,53,57,55,51,96,94,90,29.82,29.66,8,1,12,1.30
2013-6-14,76,63,54,63,57,53,96,81,53,29.86,29.69,12,3,20,0.02
2013-6-15,78,66,53,57,50,45,95,62,34,29.98,29.86,20,4,26,0.00
2013-6-16,70,63,51,63,56,46,89,77,65,29.96,29.69,9,2,21,0.00
2013-6-17,82,68,58,70,62,56,96,84,51,29.89,29.77,13,1,31,0.22
2013-6-18,66,60,53,59,56,52,96,85,70,29.96,29.88,17,4,21,0.02
2013-6-19,73,61,49,52,49,45,95,68,41,30.17,29.95,10,3,16,0.00
2013-6-20,78,64,47,59,52,45,95,69,42,30.27,30.16,9,1,12,0.00
2013-6-21,84,71,57,61,56,49,92,64,33,30.25,30.18,10,1,15,0.00
2013-6-22,83,73,64,67,63,59,89,71,54,30.20,30.05,8,3,14,0.00
2013-6-23,90,79,70,74,68,62,79,69,54,30.10,29.94,13,4,20,0.00
2013-6-24,91,76,67,74,70,65,95,81,54,30.01,29.90,10,2,23,0.38
2013-6-25,88,73,63,74,69,62,96,86,59,29.97,29.73,13,1,30,0.36
2013-6-26,82,74,70,73,69,67,96,87,68,29.80,29.74,8,1,12,0.03
2013-6-27,97,76,65,71,69,64,96,81,44,29.80,29.59,7,1,10,0.03
2013-6-28,79,73,68,71,68,65,96,86,65,29.59,29.35,15,4,27,1.51
2013-6-29,81,73,67,71,67,65,97,84,64,29.67,29.46,10,1,16,0.11
2013-6-30,84,72,64,72,68,62,96,87,65,29.90,29.67,7,1,16,0.28
2013-7-1,76,71,66,72,69,65,96,93,86,30.01,29.89,9,2,12,0.10
2013-7-2,84,74,66,75,70,64,96,87,72,30.10,30.00,12,2,20,0.00
2013-7-3,85,79,73,75,72,70,91,82,68,30.17,30.09,7,3,14,0.00
2013-7-4,89,80,72,76,73,70,95,80,63,30.19,30.05,12,2,18,0.00
2013-7-5,90,81,73,80,74,71,94,80,64,30.14,30.00,9,2,15,0.06
2013-7-6,87,78,71,73,70,68,95,78,54,30.09,30.00,13,3,20,0.00
2013-7-7,89,76,69,76,71,67,95,86,65,30.04,29.89,18,1,18,0.58
2013-7-8,85,76,71,72,70,69,96,82,59,30.02,29.92,12,2,16,0.15
2013-7-9,85,76,69,73,70,68,97,83,63,30.06,29.95,6,1,10,0.24
2013-7-10,84,76,72,76,72,69,94,87,75,29.97,29.75,10,2,21,0.93
2013-7-11,83,75,69,74,66,61,95,75,51,29.97,29.74,15,4,23,0.00
2013-7-12,83,73,66,67,64,59,89,73,58,30.16,29.96,15,5,20,0.00
2013-7-13,79,73,66,72,67,62,92,82,72,30.27,30.16,5,1,9,0.00
2013-7-14,89,79,69,74,72,67,96,80,58,30.31,30.19,8,1,12,0.00
2013-7-15,91,81,72,73,71,67,94,72,53,30.23,30.11,13,3,20,0.00
2013-7-16,92,80,68,73,70,65,92,72,51,30.21,30.12,9,2,14,0.00
2013-7-17,94,82,71,76,72,69,96,73,46,30.20,30.00,8,1,14,0.00
2013-7-18,93,84,75,76,73,71,91,72,49,30.03,29.91,13,3,24,0.00
2013-7-19,96,88,75,78,73,66,88,63,47,29.92,29.69,18,4,33,0.00
2013-7-20,86,77,69,72,67,62,85,71,57,29.83,29.68,18,3,33,0.00
2013-7-21,84,73,62,67,63,59,92,73,50,29.97,29.83,10,2,16,0.00
2013-7-22,86,74,63,70,64,56,95,73,54,30.00,29.80,10,2,20,0.35
2013-7-23,82,74,70,72,70,67,97,88,67,29.81,29.54,10,2,15,1.30
2013-7-24,76,70,61,70,60,51,96,73,54,30.01,29.59,20,6,27,0.00
2013-7-25,73,63,52,58,53,49,90,71,55,30.11,30.01,12,4,18,0.00
2013-7-26,78,67,60,62,58,54,91,73,53,30.08,29.98,12,4,18,0.00
2013-7-27,81,70,56,66,61,55,96,75,50,30.04,29.92,7,1,15,0.00
2013-7-28,73,70,66,69,65,62,94,86,78,29.97,29.91,7,1,10,0.12
2013-7-29,80,71,63,66,62,56,95,74,49,30.10,29.93,14,2,20,0.00
2013-7-30,79,68,56,62,58,54,95,73,49,30.16,30.06,12,3,21,0.00
2013-7-31,80,68,56,63,59,54,94,74,51,30.16,30.00,5,1,12,0.00
2013-8-1,75,68,62,68,63,59,92,85,74,30.01,29.82,12,3,20,0.05
2013-8-2,82,71,61,65,61,58,96,73,47,29.86,29.79,13,3,16,0.00
2013-8-3,81,70,62,62,58,51,91,67,40,29.87,29.79,16,5,31,0.00
2013-8-4,77,66,56,61,56,53,91,71,46,29.96,29.82,17,5,33,0.00
2013-8-5,77,65,53,56,51,46,90,64,36,30.05,29.95,15,5,26,0.00
2013-8-6,79,66,50,58,54,49,95,68,41,30.12,30.04,8,1,12,0.00
2013-8-7,76,71,64,64,62,58,85,74,65,30.12,30.01,13,4,18,0.00
2013-8-8,84,76,70,72,69,65,89,80,66,30.01,29.93,9,4,16,0.00
2013-8-9,77,74,72,74,71,67,95,91,83,29.94,29.76,9,2,18,0.61
2013-8-10,77,70,58,67,57,46,95,66,39,30.05,29.84,21,6,30,0.00
2013-8-11,78,64,51,59,55,50,95,74,49,30.11,30.00,13,2,15,0.00
2013-8-12,80,69,56,64,59,54,94,73,48,30.03,29.89,8,1,14,0.00
2013-8-13,76,68,63,68,64,58,95,87,76,29.89,29.65,8,1,20,1.22
2013-8-14,70,62,53,58,54,51,94,78,62,30.00,29.76,18,5,31,0.00
2013-8-15,74,62,50,57,53,49,95,74,48,30.12,30.00,14,2,20,0.00
2013-8-16,78,64,53,60,56,51,95,76,46,30.19,30.12,12,2,20,0.00
2013-8-17,80,66,53,62,58,52,96,77,44,30.29,30.19,8,1,10,0.00
2013-8-18,74,65,58,65,61,56,96,86,70,30.27,30.09,3,0,6,0.00
2013-8-19,80,69,61,65,62,58,96,80,48,30.09,29.98,8,1,16,0.00
2013-8-20,84,70,57,67,61,55,96,76,46,30.11,30.02,21,2,23,0.00
2013-8-21,86,72,60,68,64,58,96,77,47,30.17,30.01,10,1,16,0.00
2013-8-22,87,74,64,72,67,62,95,79,52,30.03,29.81,10,2,26,0.29
2013-8-23,77,69,60,67,59,51,95,72,41,30.16,29.88,14,4,20,0.00
2013-8-24,78,63,51,57,53,48,95,73,37,30.33,30.16,8,2,15,0.00
2013-8-25,80,66,50,62,57,49,95,74,49,30.39,30.15,6,1,10,0.00
2013-8-26,77,69,64,69,64,59,96,84,73,30.16,29.88,10,2,15,0.18
2013-8-27,82,72,68,71,68,66,96,88,67,29.91,29.84,9,2,12,0.09
2013-8-28,87,73,63,72,67,62,97,83,55,29.91,29.80,8,1,9,0.00
2013-8-29,81,72,62,68,66,61,96,82,63,30.03,29.91,6,0,8,0.00
2013-8-30,84,74,66,71,67,63,92,80,62,29.99,29.79,7,1,10,0.00
2013-8-31,81,73,69,74,70,68,96,91,80,29.80,29.73,8,1,16,0.37
2013-9-1,84,74,69,73,70,68,97,88,70,29.85,29.78,6,1,8,0.06
2013-9-2,81,73,66,74,70,65,96,89,76,29.79,29.64,15,1,18,0.35
2013-9-3,76,67,61,66,62,57,97,83,54,29.86,29.72,12,2,20,0.00
2013-9-4,79,68,58,60,58,55,95,73,44,29.95,29.86,13,3,23,0.00
2013-9-5,70,63,52,60,52,42,90,67,37,30.18,29.88,15,4,26,0.00
2013-9-6,70,56,43,49,44,39,95,70,38,30.28,30.11,9,1,14,0.00
2013-9-7,73,61,50,62,53,47,92,78,52,30.12,29.86,6,1,12,0.00
2013-9-8,71,64,48,62,53,42,93,72,38,30.13,29.79,17,4,27,0.00
2013-9-9,70,57,43,55,48,41,95,73,50,30.24,30.08,7,2,10,0.00
2013-9-10,79,69,62,73,66,55,95,88,77,30.09,29.97,10,2,15,0.36
2013-9-11,92,79,69,80,74,67,94,84,63,30.06,29.91,13,2,24,0.31
2013-9-12,80,71,68,74,69,66,96,93,79,29.92,29.66,8,1,16,2.62
2013-9-13,69,62,54,67,60,50,97,93,81,29.87,29.62,12,3,21,0.91
2013-9-14,64,56,50,52,49,46,89,78,62,30.11,29.87,14,5,20,0.00
2013-9-15,68,56,43,56,50,41,95,81,62,30.19,30.05,5,0,10,0.00
2013-9-16,64,55,44,56,51,41,94,86,72,30.32,30.03,14,2,21,0.11
2013-9-17,63,50,39,47,42,38,95,79,49,30.48,30.32,12,2,15,0.00
2013-9-18,70,53,40,54,47,39,96,82,51,30.35,30.15,6,0,9,0.01
2013-9-19,76,58,45,57,51,44,96,79,46,30.17,30.04,5,0,9,0.00
2013-9-20,78,63,48,62,55,47,96,78,52,30.09,29.93,6,1,12,0.00
2013-9-21,73,66,59,65,60,56,93,81,66,29.97,29.59,15,6,24,0.38
2013-9-22,64,58,50,61,50,44,96,78,54,29.92,29.61,18,6,35,0.22
2013-9-23,61,52,44,46,43,40,87,73,54,30.09,29.92,15,6,24,0.00
2013-9-24,68,52,38,48,44,37,94,74,48,30.08,29.88,15,4,21,0.00
2013-9-25,70,55,42,54,48,40,95,80,55,29.98,29.89,8,2,12,0.00
2013-9-26,66,56,47,52,49,45,94,78,58,30.15,29.98,15,4,20,0.00
2013-9-27,61,53,44,53,49,42,96,86,73,30.30,30.15,10,1,14,0.00
2013-9-28,73,56,47,57,51,45,96,86,53,30.37,30.24,9,1,12,0.00
2013-9-29,73,58,49,58,52,48,97,84,49,30.24,30.05,6,0,9,0.01
2013-9-30,73,58,47,57,51,46,96,81,50,30.10,29.96,8,1,12,0.00
2013-10-1,77,59,45,61,53,44,96,82,55,30.03,29.89,14,2,18,0.00
2013-10-2,77,64,52,64,57,50,96,81,57,29.99,29.90,8,2,26,0.00
2013-10-3,62,57,52,56,54,50,93,89,79,30.07,29.99,2,0,8,0.00
2013-10-4,62,59,56,59,56,54,95,92,87,30.08,30.03,7,1,12,0.57
2013-10-5,62,59,56,57,55,53,93,86,78,30.11,30.05,10,2,14,0.02
2013-10-6,63,58,53,59,54,51,96,89,83,30.11,30.02,12,2,16,0.18
2013-10-7,76,64,52,68,60,50,94,88,74,30.01,29.62,17,4,26,1.01
2013-10-8,65,54,45,50,45,42,92,75,49,30.37,29.95,12,3,16,0.00
2013-10-9,64,49,39,48,43,38,96,82,49,30.49,30.34,9,1,12,0.00
2013-10-10,59,50,40,52,46,38,95,85,67,30.35,30.17,7,1,10,0.01
2013-10-11,68,56,48,53,49,46,95,79,48,30.17,30.08,9,2,12,0.00
2013-10-12,73,56,42,56,48,40,96,79,53,30.34,30.15,8,2,15,0.00
2013-10-13,69,58,50,52,50,47,93,76,52,30.41,30.30,6,1,12,0.00
2013-10-14,66,57,47,56,51,44,93,81,66,30.35,30.23,7,1,12,0.00
2013-10-15,69,61,56,60,56,52,92,84,71,30.26,30.11,9,1,12,0.00
2013-10-16,64,58,53,56,51,44,85,77,68,30.11,29.85,9,2,15,0.00
2013-10-17,70,62,57,58,53,50,94,76,52,29.89,29.60,12,2,14,0.13
2013-10-18,65,56,44,61,48,39,94,75,39,29.94,29.56,16,4,29,0.06
2013-10-19,64,52,41,49,43,39,93,73,46,29.95,29.69,12,2,21,0.01
2013-10-20,60,51,41,50,40,36,86,69,44,30.03,29.68,15,3,20,0.00
2013-10-21,66,54,42,45,41,38,86,64,43,30.10,29.91,9,2,16,0.00
2013-10-22,56,50,37,49,42,34,87,74,57,29.90,29.76,17,4,26,0.00
2013-10-23,52,43,35,39,36,33,93,76,54,29.82,29.62,8,1,18,0.00
2013-10-24,51,43,32,37,33,29,94,70,45,29.94,29.73,14,4,24,0.01
2013-10-25,50,42,36,37,34,31,89,74,53,30.17,29.94,21,4,31,0.00
2013-10-26,51,42,34,36,34,31,92,73,47,30.16,29.85,13,3,18,0.00
2013-10-27,52,45,34,37,35,31,89,67,48,30.08,29.80,17,4,39,0.02
2013-10-28,57,43,32,40,32,25,93,69,41,30.37,30.07,18,3,29,0.00
2013-10-29,47,36,28,28,25,21,84,66,36,30.48,30.35,9,2,15,0.00
2013-10-30,52,40,34,41,34,27,91,80,66,30.35,30.20,6,0,8,0.01
2013-10-31,61,48,34,59,46,32,96,93,88,30.23,29.73,6,3,24,0.22
2013-11-1,69,63,51,62,54,42,93,75,46,29.73,29.37,22,8,33,0.04
2013-11-2,59,48,39,50,43,36,94,82,62,29.84,29.61,17,2,26,0.02
2013-11-3,42,37,27,36,26,19,81,65,49,30.49,29.84,20,7,30,0.00
2013-11-4,41,30,22,23,20,18,89,68,40,30.69,30.49,15,3,18,0.00
2013-11-5,52,41,26,39,32,22,90,70,56,30.68,30.45,14,3,16,0.00
2013-11-6,59,52,46,48,44,39,84,74,63,30.46,29.93,20,9,29,0.00
2013-11-7,57,50,41,52,44,35,93,80,68,29.94,29.76,17,7,35,0.24
2013-11-8,46,39,32,36,32,27,85,74,51,30.17,29.88,30,8,41,0.01
2013-11-9,44,37,26,33,28,22,89,73,57,30.24,29.93,13,2,18,0.00
2013-11-10,51,45,40,40,35,30,85,69,55,30.00,29.76,22,6,31,0.04
2013-11-11,49,44,38,35,32,28,76,61,51,30.16,29.91,14,4,31,0.00
2013-11-12,46,32,24,36,23,17,88,70,57,30.28,29.93,21,10,35,0.01
2013-11-13,37,29,20,21,17,14,78,62,40,30.38,30.17,23,6,26,0.00
2013-11-14,53,38,29,27,23,20,72,56,35,30.16,30.07,16,4,23,0.00
2013-11-15,56,43,35,28,23,18,61,45,28,30.20,30.10,12,3,14,0.00
2013-11-16,60,51,41,40,36,26,73,57,42,30.30,30.19,7,2,10,0.00
2013-11-17,61,53,46,57,49,39,94,88,73,30.24,29.68,29,7,31,0.01
2013-11-18,63,56,42,58,43,31,92,63,39,29.76,29.47,28,11,41,0.16
2013-11-19,42,37,26,31,24,19,79,60,50,30.39,29.76,31,12,38,0.00
2013-11-20,38,28,21,22,19,16,84,69,45,30.65,30.39,14,3,20,0.00
2013-11-21,45,33,18,32,24,15,90,71,48,30.65,30.37,13,2,16,0.00
2013-11-22,48,43,39,44,40,32,95,89,68,30.37,29.88,10,0,35,0.07
2013-11-23,47,35,24,41,26,15,86,70,43,30.04,29.85,22,11,41,0.00
2013-11-24,27,21,15,17,8,4,78,58,42,30.32,29.93,33,15,48,0.00
2013-11-25,32,24,11,18,12,5,81,60,52,30.44,30.22,16,5,23,0.00
2013-11-26,35,32,27,32,27,17,94,83,53,30.31,29.94,14,4,20,0.23
2013-11-27,39,36,32,38,34,27,96,92,81,29.93,29.41,26,8,36,1.02
2013-11-28,32,26,19,27,16,12,87,68,49,30.46,29.64,26,9,46,0.00
2013-11-29,33,24,18,20,16,12,89,72,45,30.77,30.46,14,3,29,0.00
2013-11-30,31,24,12,22,14,8,89,67,47,30.80,30.37,21,4,30,0.00
2013-12-1,40,34,28,32,28,22,89,79,69,30.37,30.02,8,1,16,0.00
2013-12-2,39,35,29,34,31,26,90,86,78,30.02,29.90,3,0,8,0.00
2013-12-3,43,34,27,36,30,24,94,86,69,30.01,29.92,12,1,20,0.00
2013-12-4,44,31,23,32,26,21,94,83,56,30.16,30.01,6,1,8,0.00
2013-12-5,54,46,29,52,43,26,94,91,86,30.15,29.88,21,8,27,0.02
2013-12-6,53,40,33,51,36,30,93,84,75,30.19,29.90,17,8,26,0.33
2013-12-7,36,32,30,31,27,22,93,80,65,30.49,30.15,20,7,30,0.02
2013-12-8,31,28,23,23,21,19,87,76,68,30.60,30.50,10,2,14,0.00
2013-12-9,55,30,27,33,28,23,93,90,84,30.38,0.00,9,0,12,0.00
2013-12-10,34,29,18,32,26,14,94,86,69,30.02,29.86,8,1,20,0.02
2013-12-11,31,26,17,23,17,11,88,70,55,30.22,30.02,7,2,22,0.00
2013-12-12,25,20,13,18,10,3,85,65,42,30.35,30.05,7,2,13,0.00
2013-12-13,31,22,14,23,13,5,84,67,56,30.42,29.99,10,3,25,0.00
2013-12-14,14,11,8,9,5,1,87,76,67,30.61,30.07,6,2,13,0.36
2013-12-15,31,23,12,26,19,10,92,87,79,30.06,29.57,10,1,20,0.85
2013-12-16,26,19,4,23,12,0,90,73,59,30.24,29.76,10,2,25,0.00
2013-12-17,13,5,-4,10,2,-8,89,85,82,30.25,30.02,2,0,6,0.07
2013-12-18,26,19,9,22,16,5,91,86,79,30.09,30.00,2,0,7,0.07
2013-12-19,39,31,25,28,25,22,89,79,63,30.10,29.97,7,2,15,0.01
2013-12-20,44,39,33,36,32,28,86,77,65,30.09,29.89,7,2,16,0.08
2013-12-21,49,45,40,45,39,33,95,79,65,29.92,29.82,8,2,16,0.23
2013-12-22,56,39,32,55,37,30,97,94,88,29.94,29.61,8,2,18,0.03
2013-12-23,46,40,34,42,37,28,95,89,72,30.19,29.93,14,2,30,0.20
2013-12-24,34,28,19,29,19,10,81,71,62,30.34,30.13,14,3,30,0.00
2013-12-25,22,16,10,13,7,2,76,67,54,30.57,30.35,12,3,25,0.00
2013-12-26,31,26,20,26,20,12,90,76,60,30.40,30.11,9,3,17,0.00
2013-12-27,34,28,20,26,22,16,90,79,64,30.30,30.22,5,0,12,0.00
2013-12-28,45,34,27,32,27,22,91,76,60,30.22,30.03,7,2,12,0.00
2013-12-29,42,34,27,35,31,24,95,86,67,30.03,29.58,7,1,13,0.77
2013-12-30,34,25,12,33,19,7,95,78,60,30.23,29.65,15,4,32,0.01
2013-12-31,24,17,10,19,11,6,87,78,59,30.23,30.03,9,1,26,0.00
2014-1-1,26,19,11,15,12,6,85,73,57,30.39,30.22,8,1,17,0.04
2014-1-2,18,4,-2,15,0,-6,86,83,81,30.35,29.94,10,4,20,0.14